Tracking 28790 objects as of 19-Apr-2024
HD Live streaming from Space Station
objects crossing your sky now

FENGYUN 1C DEB

Track FENGYUN 1C DEB now!
10-day predictions


NORAD ID: 30131
Int'l Code: 1999-025SL
Perigee: 794.5 km
Apogee: 930.1 km
Inclination: 99.1 °
Period: 102.0 minutes
Semi major axis: 7233 km
RCS: 0.058 m2 (small)
Launch date: May 10, 1999
Source: People's Republic of China (PRC)
Launch site: Taiyaun Space Center, China (TSC)

Note: This is SATELLITE DEBRIS
Your satellite tracking list
Your tracking list is empty




NASA's NSSDC Master Catalog

Two Line Element Set (TLE):
1 30131U 99025SL  24109.17721203  .00010195  00000-0  54383-2 0  9993
2 30131  99.0871 182.7108 0093736  69.9204 344.7451 14.11233690881431
Source of the keplerian elements: AFSPC